Regional Weather Roundup
Issued by NWS

Home | Current Version | Previous Version | Text Only | Print | Product List | Glossary On
Versions: 1 2 3 4 5 6 7 8 9 10 11 12 13 14 15 16 17 18 19 20 21 22 23 24 25 26 27 28 29 30 31 32 33 34 35 36 37 38 39 40 41 42 43 44 45 46 47 48 49 50
000
ASUS45 KTFX 240819
RWRMT
MONTANA HOURLY WEATHER ROUNDUP
NATIONAL WEATHER SERVICE GREAT FALLS MT
219 AM MDT THU JUL 24 2014

NOTE: "FAIR" INDICATES FEW OR NO CLOUDS BELOW 12000 FEET WITH NO
SIGNIFICANT WEATHER AND/OR OBSTRUCTIONS TO VISIBILITY.

* THESE STATIONS ARE NOT UNDER NWS QUALITY CONTROL. THEY DO NOT
   REPORT WEATHER SUCH AS PRECIPITATION OR FOG.

MTZ001>007-043-240900-
WEST OF THE DIVIDE
CITY           SKY/WX    TMP DP  RH WIND       PRES   REMARKS
KALISPELL      CLOUDY    64  55  73 CALM      29.97S
MISSOULA       CLOUDY    66  50  56 NW16      30.01R
BUTTE          CLEAR     52  45  77 SE6       30.03S
MULLAN PASS    LGT RAIN  43  43 100 VRB6      30.14S
* ESSEX        N/A       66  49  54 SW2        N/A
* LINCOLN      N/A       52  52 100 NE2        N/A
* LOOKOUT PASS N/A       51  46  83 N6         N/A
* POLSON       N/A       62  51  67 NW1        N/A
* RONAN APT    PTCLDY    66  55  68 N/A        N/A
* SEELEY LAKE  N/A       63  50  63 NW5G11     N/A
* THOMP F APT  PTCLDY    66  32  28 N3         N/A
$$

MTZ008-052>055-240900-
SOUTHWEST MONTANA
CITY           SKY/WX    TMP DP  RH WIND       PRES   REMARKS
BOZEMAN        CLEAR     57  43  60 S6        29.93R
DILLON         PTCLDY    55  39  55 SW8       29.98S
W YELLOWSTONE  CLEAR     45  39  80 CALM      30.12S
* THREE FORKS  CLEAR     57  57 100 N/A        N/A
* BOULDER HILL N/A       58  45  62 SW2        N/A
* MONIDA PASS  N/A       61  29  30 SE1        N/A
* RAYNOLDS PAS N/A       55  17  22 NE1        N/A
* WHITEHALL    N/A       59  50  72 NE2        N/A
* WISE RIVER   N/A       54  48  80 SE5        N/A
$$

MTZ009>010-012-014-046-048-049-054-240900-
EAST SLOPES AND CENTRAL MONTANA
CITY           SKY/WX    TMP DP  RH WIND       PRES   REMARKS
CUT BANK       PTCLDY    59  55  87 NW10      29.90R
GREAT FALLS    CLEAR     57  52  83 SW9       29.85F
HELENA         CLEAR     61  52  72 CALM      29.90S
MALMSTROM AFB  CLEAR     61  54  78 S9        29.86F
* CONRAD       PTCLDY    64  59  84 W8         N/A
* DEARBORN     N/A       60  54  81 SW1        N/A
* EAST GLACIER N/A       59  49  70 W2G7       N/A
* MONARCH      N/A       57  48  72 SE5G12     N/A
* SAINT MARY   N/A       54  53  96 S3         N/A
* SWEET GRASS  N/A       61  59  93 N14G20     N/A
* WHITE SULPH  N/A       56  52  87 NE2        N/A
$$

MTZ011-013-016-021-035-040-045-047-050-051-240900-
NORTH CENTRAL MONTANA
CITY           SKY/WX    TMP DP  RH WIND       PRES   REMARKS
HAVRE          MOCLDY    64  57  78 E6        29.79F
LEWISTOWN      CLEAR     64  52  65 E5        29.88F
* FORT BENTON  PTCLDY    64  57  78 CALM      29.81F
* CHESTER      N/A       64  59  84 NE1        N/A
* DENTON       N/A       59  54  84 SW4        N/A
* GEYSER       N/A       59  49  70 S8         N/A
* JUDITH GAP   N/A       65  46  50 N/A        N/A
* LOMA         N/A       66  59  78 SE4        N/A
$$

MTZ017>020-022>027-061-062-240900-
NORTHEAST MONTANA
CITY           SKY/WX    TMP DP  RH WIND       PRES   REMARKS
GLASGOW        TSTM      75  61  62 S12       29.88R
GLENDIVE       PTCLDY    72  55  55 E9        29.86F
JORDAN         MOCLDY    70  64  81 N13G33    29.81F
SIDNEY         MOCLDY    70  55  59 SE7       29.88F
WOLF POINT     MOCLDY    73  59  62 E14       29.82F
* BEAVER HILL  N/A       68  55  63 SE27G35    N/A
* CIRCLE       N/A       72  61  68 N9         N/A
* LINDSAY DVD  N/A       65  58  78 E12        N/A
* NAVAJO       N/A       67  62  84 SE11       N/A
$$

MTZ028>042-056>058-240900-
SOUTHCENTRAL AND SOUTHEAST MONTANA
CITY           SKY/WX    TMP DP  RH WIND       PRES   REMARKS
BAKER          CLEAR     64  55  73 E15       29.90F
BILLINGS       CLEAR     73  61  66 SW7       29.84F
LIVINGSTON     CLEAR     61  45  56 NW5       29.91F
MILES CITY     PTCLDY    73  63  71 NE9       29.80F
* LAUREL APT   CLEAR     66  57  73 N/A        N/A
* ROUNDUP APT  CLEAR     73  52  48 N/A        N/A
* ALZADA       N/A       71  64  79 E11        N/A
* HYSHAM       N/A       79  52  39 N/A        N/A
* LAME DEER    N/A       77  57  50 SE10G17    N/A
* REED POINT   N/A       62  59  90 N/A        N/A
* ROSCOE HILL  N/A       75  39  27 SE4        N/A
$$

REGIONAL REPORTS...DAKOTAS
CITY           SKY/WX    TMP DP  RH WIND       PRES   REMARKS
WILLISTON      MOCLDY    72  57  59 SE13G25   29.92F
DICKINSON      CLEAR     64  55  73 SE16G25   29.95F
CROSBY         TSTM      63  63 100 E12       29.92F
TIOGA          CLEAR     64  64 100 SE20      29.98F
WATFORD CITY   CLEAR     66  57  73 SE20G29   29.89F
BISMARCK       CLEAR     64  57  78 E12       30.05F
GRAND FORKS    CLOUDY    57  55  93 CALM      30.14S
FARGO          PTCLDY    63  57  81 E8        30.13F
BUFFALO SD     MOCLDY    68  55  63 E17       29.83F
RAPID CITY     MOCLDY    68  63  84 E7        29.98F
$$

REGIONAL REPORTS...WYOMING/IDAHO/WASHINGTON
CITY           SKY/WX    TMP DP  RH WIND       PRES   REMARKS
GILLETTE       PTCLDY    73  61  66 E5        29.97F
SHERIDAN       CLEAR     64  55  73 NW5       29.88F
YELLOWSTONE LA CLEAR     46  37  71 CALM      30.26S
SALMON         CLEAR     61  45  56 NE3       29.92S
MULLAN PASS    LGT RAIN  43  43 100 VRB6      30.14S
SAND POINT     CLOUDY    57  55  93 S5        30.03F
SPOKANE        FAIR      55  45  69 S14G25    30.05R
$$

REGIONAL REPORTS...ALBERTA
CITY           SKY/WX    TMP DP  RH WIND       PRES   REMARKS
CALGARY        FAIR      57  54  90 SW6       29.82F
LETHBRIDGE     CLEAR     55  54  96 SE3       29.86S
MEDICINE HAT   TSTM      63  61  93 N10       29.84R
EDMONTON       MOCLDY    63  59  87 SE9       29.77F
WATERTON GATE  N/A       57  48  72 SW3        N/A
CARDSTON       N/A       55  54  96 SW5        N/A
MILK RIVER     N/A       59  54  84 N12        N/A
$$

REGIONAL REPORTS...SASKATCHEWAN
CITY           SKY/WX    TMP DP  RH WIND       PRES   REMARKS
SWIFT CURRENT  PTCLDY    68  64  87 SE14      29.83F
REGINA         FAIR      64  61  90 SE17      29.92F
VAL MARIE      N/A       61  57  87 S8         N/A
ASSINIBOIA     N/A       68  63  84 E15G21     N/A
CORONACH       N/A       68  63  84 E14G21     N/A

$$




USA.gov is the U.S. government's official web portal to all federal, state and local government web resources and services.